Home > Weather > Oceanside > Past weeks

Flag for U.S.A. Weather for the Past 2 Weeks in Oceanside, California, U.S.A.

Now
80 °F

Sunny.


Feels Like: 78 °F
Forecast: 52 / 80 °F
Wind: 9 mph from West

Location: Oceanside Weather Reporting Station

Current Time: Feb 10, 2016 at 2:30:00 PM

Latest Report: Feb 10, 2016 at 1:52 PM


Visibility: 10 mi

Pressure: 30.06 "Hg

Humidity: 16%

Dew point: 30 °F

Location of OceansideLocation

Historic Weather in Oceanside — Graph

°F

Oceanside Temperature Yesterday

Maximum temperature yesterday: 84 °F (at 12:52 PM)
Minimum temperature yesterday: 46 °F (at 1:52 AM)
Average temperature yesterday: 63 °F

High & Low Weather Summary for the Past Weeks

 TemperatureHumidityPressure
High85 °F (Feb 8, 11:52 AM)93% (Jan 28, 8:52 PM)30.36 "Hg (Jan 28, 8:52 PM)
Low32 °F (Feb 2, 3:52 AM)13% (Feb 5, 10:52 AM)29.69 "Hg (Jan 31, 2:00 PM)
Average55 °F53%30.13 "Hg
* Reported Jan 26 12:52 PM — Feb 10 12:52 PM, Oceanside, Weather by CustomWeather, © 2016

Note: Actual official high and low records may vary slightly from our data, if they occured in-between our weather recording intervals... More about our weather records

Advertising

Oceanside Weather History for the Previous 24 Hours

 ConditionsComfort  
Time TempWeatherWind HumidityBarometerVisibility
12:52 PM
Wed, Feb 10
80 °FSunny.10 mph17%30.09 "Hg10 mi
11:52 AM80 °FSunny.10 mph26%30.11 "Hg10 mi
10:52 AM82 °FSunny.5 mph15%30.14 "Hg10 mi
9:52 AM73 °FSunny.6 mph22%30.15 "Hg10 mi
8:52 AM65 °FSunny.3 mph29%30.14 "Hg10 mi
7:52 AM58 °FSunny.5 mph39%30.13 "Hg10 mi
6:52 AM51 °FSunny.3 mph44%30.12 "Hg10 mi
5:52 AM48 °FClear.5 mph54%30.11 "Hg10 mi
4:52 AM48 °FClear.No wind56%30.11 "Hg10 mi
3:52 AM44 °FClear.5 mph68%30.10 "Hg10 mi
2:52 AM44 °FClear.No wind71%30.11 "Hg10 mi
1:52 AM49 °FClear.No wind61%30.11 "Hg10 mi
12:52 AM51 °FClear.3 mph56%30.10 "Hg10 mi
11:52 PM
Tue, Feb 9
54 °FClear.6 mph53%30.09 "Hg10 mi
10:52 PM54 °FClear.6 mph55%30.11 "Hg10 mi
9:52 PM57 °FClear.No wind53%30.10 "Hg10 mi
8:52 PM56 °FClear.No wind49%30.07 "Hg10 mi
7:52 PM58 °FClear.No wind50%30.05 "Hg10 mi
6:52 PM62 °FClear.8 mph48%30.07 "Hg10 mi
5:52 PM68 °FClear.9 mph42%30.07 "Hg10 mi
4:52 PM76 °FSunny.5 mph22%30.04 "Hg10 mi
3:52 PM80 °FSunny.12 mph20%30.04 "Hg10 mi
2:52 PM81 °FSunny.7 mph18%30.03 "Hg10 mi
Weather by CustomWeather, © 2016

See weather overviewHow to use our weather pages